Date,TemperatureHighF,TemperatureAvgF,TemperatureLowF,DewpointHighF,DewpointAvgF,DewpointLowF,HumidityHigh,HumidityAvg,HumidityLow,PressureMaxIn,PressureMinIn,WindSpeedMaxMPH,WindSpeedAvgMPH,GustSpeedMaxMPH,PrecipitationSumIn
2013-2-1,15.8,9.0,3.5,9.5,4.0,0.3,89,80,69,30.71,30.42,13,2,13,0.00
2013-2-2,21.8,14.9,8.6,10.8,6.5,2.3,83,69,59,30.42,30.03,11,1,11,0.00
2013-2-3,16.1,12.2,9.5,9.7,7.1,5.2,85,79,73,30.04,29.84,7,1,7,0.00
2013-2-4,16.1,12.4,9.4,12.4,9.1,5.6,90,87,84,30.18,29.99,5,0,5,0.00
2013-2-5,13.6,7.0,3.5,10.9,3.9,0.3,89,87,84,30.17,30.13,5,0,5,0.00
2013-2-6,7.5,3.9,1.8,4.4,0.3,-2.1,87,85,83,30.24,30.12,3,0,3,0.00
2013-2-7,11.8,7.0,-0.7,8.9,3.8,-4.3,89,86,83,30.24,29.84,5,0,5,0.00
2013-2-8,10.9,5.4,0.9,8.0,2.0,-2.9,89,86,82,30.36,29.87,5,0,5,0.00
2013-2-9,33.0,25.3,9.2,23.0,17.6,6.4,90,73,63,30.36,29.52,17,5,17,0.00
2013-2-10,36.9,27.0,10.1,26.7,19.8,6.8,90,75,65,29.96,29.43,14,3,14,0.02
2013-2-11,19.4,15.9,9.2,15.6,12.9,6.4,90,88,84,30.23,29.96,9,1,9,0.00
2013-2-12,15.3,11.5,7.6,12.0,8.6,4.6,90,88,85,30.32,30.23,5,0,5,0.00
2013-2-13,26.1,21.1,15.3,16.4,12.8,9.7,85,70,61,30.32,30.26,9,2,9,0.00
2013-2-14,28.7,26.0,22.6,15.4,12.3,10.4,71,56,47,30.26,29.82,17,4,17,0.00
2013-2-15,23.3,8.1,-4.0,17.6,3.4,-8.4,92,81,73,30.57,29.92,21,2,21,0.00
2013-2-16,2.7,-2.7,-7.7,-1.8,-7.3,-11.7,92,80,74,30.66,30.45,7,1,7,0.00
2013-2-17,1.2,-5.0,-9.6,-4.8,-10.0,-14.7,81,78,74,30.73,30.38,15,2,15,0.00
2013-2-18,-9.5,-14.4,-17.9,-14.7,-19.5,-22.9,80,77,73,30.85,30.73,10,1,10,0.00
2013-2-19,-2.1,-10.2,-18.8,-11.1,-17.5,-24.8,78,70,62,30.74,30.17,17,3,18,0.00
2013-2-20,5.0,-2.1,-7.5,-5.0,-10.1,-14.2,79,68,59,30.17,29.94,20,4,20,0.00
2013-2-21,0.3,-3.1,-5.6,-6.8,-9.2,-11.1,80,75,65,29.99,29.90,16,2,16,0.00
2013-2-22,-5.2,-8.5,-13.2,-11.0,-13.6,-17.9,90,78,73,30.19,29.93,5,1,5,0.00
2013-2-23,3.7,-2.8,-11.3,-3.7,-9.1,-16.8,80,74,66,30.12,29.88,9,1,9,0.00
2013-2-24,6.7,0.4,-4.5,-1.1,-5.4,-8.9,84,76,64,30.25,29.91,5,1,5,0.00
2013-2-25,27.8,13.8,-0.1,14.8,6.0,-4.2,87,72,53,30.29,30.24,7,1,7,0.00
2013-2-26,27.1,20.9,14.2,11.0,8.2,4.3,70,58,47,30.28,29.97,14,3,14,0.00
2013-2-27,30.2,25.2,20.0,14.8,11.4,8.5,62,55,50,29.97,29.81,15,5,15,0.00
2013-2-28,32.6,25.1,17.9,14.0,10.3,7.6,66,53,41,29.95,29.85,8,1,8,0.02